SCP
0 -0 -0 -0 -0 -0 0 -0 -0 -0 -0 0 -0 -0 -0 -0 0 0 -0 -0 -0 -0 -0 -0 -0 -0 -0 -0 -0 -0 -0 -0 -0 -0 -0 -0 -0 -0 -0 -0 0 -0 -0
-0 -0 -0 -0 -0 -0 -0 -0 -0 -0 -0 -0 -0 0 0 0 0 0 0 0 -0 -0 -0 -0 -0 -0 0 0 0 -0 -0 -0 -0 -0 -0 -0 -0 -0 -0 -0 -0 -0 -0
-0 -0 -0 -0 -0 -0 -0 -0 -0 -0 -0 -0 0 0 0 0 0 0 0 0 0 0 0 0 -0 -0 -0 -0 -0 -0 -0 -0 -0 -0 0 0 0 0 -0 -0 -0 -0 -0
-0 -0 -0 -0 -0 -0 -0 -0 -0 -0 -0 -0 -0 0 0 0 0 0 0 0 0 0 -0 -0 -0 -0 -0 -0 -0 -0 -0 -0 -0 -0 0 0 0 0 -0 -0 -0 -0 -0
-0 -0 -0 -0 -0 -0 -0 -0 -0 -0 -0 -0 -0 0 0 0 0 0 0 0 -0 0 0 0 0 0 -0 -0 -0 -0 -0 -0 -0 -0 -0 -0 0 -0 -0 -0 -0 -0 -0
-0 -0 -0 -0 -0 -0 -0 -0 -0 0 0 0 0 0 0 0 0 0 0 0 0 0 0 0 0 0 0 -0 -0 -0 -0 -0 -0 0 -0 -0 -0 -0 -0 -0 -0 -0 -0
-0 -0 0 -0 0 0 0 -0 -0 0 0 0 0 0 0 0 0 0 0 0 0 -0 -0 -0 -0 -0 -0 0 -0 -0 -0 -0 0 0 -0 -0 -0 -0 -0 -0 -0 -0 -0
-0 -0 0 0 0 0 0 0 0 -0 -0 0 0 0 0 0 0 0 0 0 0 0 0 0 -0 -0 -0 -0 -0 -0 -0 -0 -0 0 0 0 0 -0 -0 -0 -0 -0 -0
-0 -0 -0 0 0 0 0 0 -0 0 0 0 0 0 0 0 0 0 0 0 0 0 0 0 0 0 0 0 0 0 0 0 0 0 0 0 0 0 0 0 0 0 0
0 -0 -0 0 0 0 0 0 0 0 0 0 0 0 0 0 0 0 0 0 0 0 0 0 0 0 0 0 0 0 0 0 0 0 0 0 0 0 0 0 0 0 0
0 0 0 0 0 0 0 0 0 0 0 0 0 0 0 0 0 0 0 0 0 0 0 0 0 0 0 0 0 0 0 0 0 0 0 0 0 0 0 0 0 0 0
0 0 0 0 0 0 0 0 0 0 0 0 0 0 0 0 0 0 0 0 0 0 0 0 0 0 0 0 0 0 0 0 0 0 0 0 0 0 0 0 0 0 0
0 0 0 0 0 0 0 0 0 0 0 0 0 0 0 0 0 0 0 0 0 0 0 0 0 0 0 0 0 0 0 0 0 0 0 0 0 0 0 0 0 0 0
0 0 0 0 0 0 0 0 0 0 0 0 0 0 0 0 0 0 0 0 0 0 0 0 0 0 0 0 0 0 0 0 0 0 0 0 0 0 0 0 0 0 0
0 0 0 0 0 0 0 0 0 0 0 0 0 0 0 0 0 0 0 0 0 0 0 0 0 0 0 0 0 0 0 0 0 0 0 0 0 0 0 0 0 0 0
0 0 0 0 0 0 0 0 0 0 0 0 0 0 0 0 0 0 0 0 0 0 0 0 0 0 0 0 0 0 0 0 0 0 0 0 0 0 0 0 0 0 0
0 0 0 0 0 0 0 0 0 0 0 0 0 0 0 0 0 0 0 0 0 0 0 0 0 0 0 0 0 0 0 0 0 0 0 0 0 0 0 0 0 0 0
0 0 0 0 0 0 0 0 0 0 0 0 0 0 0 0 0 0 0 0 0 0 0 0 0 0 0 0 0 0 0 0 0 0 0 0 0 0 0 0 0 0 0
0 0 0 0 0 0 0 0 0 0 0 0 0 0 0 0 0 0 0 0 0 0 0 0 0 0 0 0 0 0 0 0 0 0 0 0 0 0 0 0 0 0 0
0 0 0 0 0 0 0 0 0 0 0 0 0 0 0 0 0 0 0 0 0 0 0 0 0 0 0 0 0 0 0 0 0 0 0 0 0 0 0 0 0 0 0
0 0 0 0 0 0 0 0 0 0 0 0 0 0 0 0 0 0 0 0 0 0 0 0 0 0 0 0 0 0 0 0 0 0 0 0 0 0 0 0 0 0 0
0 0 0 0 0 0 0 0 0 0 0 0 0 0 0 0 0 0 0 0 0 0 0 0 0 0 0 0 0 0 0 0 0 0 0 0 0 0 0 0 0 0 0
0 0 0 0 0 0 0 0 0 0 0 0 0 0 0 0 0 0 0 0 0 0 0 0 0 0 0 0 0 0 0 0 0 0 0 0 0 0 0 0 0 0 0
-0 -0 -0 0 0 0 0 0 0 0 0 0 0 0 0 0 0 0 0 0 0 0 0 0 0 0 0 0 0 0 0 0 0 0 0 0 0 0 0 0 0 0 0
-0 -0 -0 0 0 0 0 0 0 0 0 0 0 0 0 0 0 0 0 0 0 0 0 0 0 0 0 0 0 0 0 0 0 0 0 0 0 0 0 0 0 0 0
0 -0 -0 -0 -0 0 0 0 0 0 0 0 0 0 0 0 0 0 0 0 0 0 0 0 0 0 0 0 0 0 0 0 0 0 0 0 0 0 0 0 0 0 0
Wind_Speed_500mb
54 46 41 38 37 36 32 28 27 26 26 25 22 20 19 18 17 15 11 8 7 6 4 5 4 4 5 6 5 5 7 6 6 6 6 8 11 11 11 13 14 16 16
51 46 44 40 38 36 33 31 28 25 24 23 22 20 20 20 17 14 12 12 11 11 9 5 7 8 11 12 10 9 7 5 5 4 4 5 9 6 5 9 10 13 12
44 45 46 42 39 37 33 29 26 24 21 17 21 18 18 24 20 15 15 16 15 15 13 12 12 13 14 14 13 11 10 9 6 4 2 2 4 2 2 3 3 7 9
36 44 45 43 39 36 34 32 27 28 25 24 24 23 18 18 16 16 17 18 17 17 17 16 15 14 14 13 12 10 10 11 11 9 6 5 4 2 1 5 4 4 4
33 41 42 42 41 38 34 34 36 35 33 31 26 24 20 17 17 17 18 18 19 18 17 13 13 12 11 8 8 7 6 6 7 9 10 9 7 3 5 9 11 10 9
33 40 42 42 44 46 45 42 37 35 38 33 32 26 22 20 20 20 22 21 20 16 13 12 9 5 5 4 5 5 6 6 4 4 7 12 13 11 11 10 9 13 12
32 40 44 44 44 43 49 46 39 37 34 32 30 25 25 23 23 22 23 20 18 16 12 10 6 3 2 3 4 5 5 5 4 3 6 11 16 21 22 19 15 16 17
30 36 43 46 46 47 47 41 39 35 32 32 28 27 26 24 22 21 20 19 17 14 10 8 5 3 3 3 3 4 3 4 4 4 4 10 16 20 25 22 21 24 23
33 37 41 46 48 48 50 43 40 37 36 35 32 30 27 25 23 22 19 17 14 12 10 7 5 5 5 5 5 3 3 3 4 4 6 10 14 19 22 22 24 26 25
37 40 42 46 49 48 48 46 43 39 40 36 34 33 30 28 25 24 22 19 16 14 10 8 6 6 6 6 7 7 6 6 6 5 6 10 14 18 20 21 23 24 24
41 44 46 49 52 51 49 47 45 44 43 39 38 35 33 31 29 27 26 24 21 18 15 13 11 10 9 8 7 7 8 9 10 9 8 10 13 16 17 18 21 21 23
45 47 49 52 55 56 54 53 51 50 48 46 43 38 36 35 33 33 31 29 26 23 20 16 13 11 9 8 7 8 9 11 11 11 11 12 13 16 17 17 18 20 21
44 50 52 55 57 60 60 59 57 55 54 51 47 43 41 40 39 36 34 32 30 27 22 18 14 12 9 7 7 8 9 9 11 11 11 11 14 17 16 16 18 20 21
54 51 57 59 61 63 65 65 62 61 59 58 53 49 48 47 44 41 40 38 34 28 24 19 15 12 9 8 8 9 10 11 12 12 11 11 12 14 16 19 19 19 17
66 61 62 63 65 68 69 68 69 68 67 64 59 56 53 52 48 46 45 42 38 33 28 23 19 15 12 10 9 9 9 11 13 15 14 11 10 14 15 16 17 15 3
60 65 66 69 69 70 72 73 72 72 71 70 67 63 59 56 53 52 50 47 43 38 32 28 23 19 15 12 10 10 11 12 14 15 15 14 10 10 15 17 16 6 10
57 56 62 68 74 77 76 76 78 77 76 78 75 71 68 64 62 59 57 53 48 43 38 33 28 23 19 15 12 12 12 12 13 12 11 9 6 6 7 10 11 18 13
55 55 58 65 75 80 83 83 83 84 82 83 83 80 77 74 71 68 65 60 55 50 44 39 34 28 23 18 16 15 14 14 13 11 9 6 5 6 5 7 10 14 14
69 69 67 65 72 79 86 90 91 92 90 91 91 89 86 82 80 77 73 67 63 57 51 46 40 34 28 24 21 18 16 15 13 10 9 7 8 9 9 10 9 9 8
51 57 65 70 71 76 86 93 99 101 102 100 97 95 93 91 89 85 79 75 72 67 62 57 48 43 36 31 25 21 18 17 17 17 16 14 14 12 10 7 6 9 13
44 48 54 62 70 79 87 95 107 110 110 108 107 103 101 99 95 92 87 84 81 76 69 61 56 51 44 37 29 24 21 20 22 22 21 16 12 11 10 7 11 13 16
30 29 34 44 59 71 85 95 107 106 116 115 113 113 107 105 101 98 94 92 87 81 77 72 65 59 50 43 35 27 18 22 27 29 28 24 19 18 12 10 14 16 17
37 33 35 37 45 56 70 86 102 110 112 118 122 121 117 113 108 105 100 95 90 86 82 76 71 63 57 52 46 32 17 18 28 34 34 31 26 26 17 13 16 17 16
55 59 49 43 48 56 65 80 95 109 119 119 115 120 124 120 116 112 106 100 95 91 88 82 73 69 63 60 53 51 45 27 21 18 34 35 35 32 30 19 17 16 14
63 73 75 64 56 56 65 75 85 97 108 118 113 118 122 122 121 117 113 107 104 100 92 86 82 79 73 66 64 55 52 45 40 34 25 31 38 35 32 25 21 17 12
79 74 72 70 58 56 62 66 79 86 98 110 111 110 110 116 123 123 116 113 109 103 99 92 87 81 77 71 67 61 57 52 49 45 42 35 34 32 30 26 22 17 15
Wind_Direction_500mb
186 188 188 185 182 178 177 177 178 182 183 187 194 195 187 184 182 179 176 176 192 214 259 291 324 319 329 328 349 6 19 17 16 37 36 50 59 54 49 50 51 52 44
188 188 192 191 192 190 189 187 186 190 192 194 199 204 198 198 204 208 218 227 236 248 264 288 286 310 316 316 338 341 322 331 356 4 61 70 85 84 82 73 68 56 44
190 192 193 194 192 192 192 196 197 201 198 188 199 203 202 219 224 229 241 249 256 268 282 295 304 311 308 312 312 308 306 300 298 300 313 110 132 81 118 90 62 39 37
187 196 195 195 190 190 191 193 191 193 194 205 208 210 211 236 243 249 254 261 270 279 290 299 304 305 311 311 308 309 302 293 284 275 261 238 205 275 301 262 279 310 347
189 195 198 198 190 186 190 192 190 198 192 199 203 218 237 238 247 252 255 259 265 272 280 289 296 303 304 315 324 330 321 306 290 270 261 256 238 271 316 292 266 264 262
194 195 200 201 197 190 191 193 193 197 204 215 224 231 233 234 237 249 259 259 260 266 277 287 289 302 309 345 356 359 350 353 331 285 260 248 233 190 201 220 248 253 253
203 201 203 204 205 200 203 211 213 218 223 224 230 229 231 236 241 238 239 242 251 255 245 241 243 259 308 348 360 358 358 349 339 312 259 242 241 245 245 249 270 275 260
217 213 210 208 210 209 217 218 220 224 225 228 232 235 240 241 237 233 232 232 230 232 227 228 236 255 282 315 323 323 320 312 322 311 263 248 243 248 262 267 268 275 290
220 218 218 216 215 214 221 223 223 222 224 227 228 233 235 236 235 237 237 234 226 215 215 216 228 274 303 322 324 323 322 303 281 277 273 256 256 258 262 271 269 270 274
226 223 222 221 222 222 222 223 224 225 229 228 226 225 223 226 229 231 229 225 217 212 213 225 240 265 292 310 324 340 346 340 330 310 272 263 259 266 272 272 275 279 280
235 230 226 225 224 226 226 227 227 228 231 229 226 225 223 225 223 223 220 215 213 213 217 228 248 267 284 299 311 320 330 335 332 324 311 289 276 271 274 280 282 283 284
244 240 235 230 227 227 228 228 228 228 229 228 227 227 224 223 221 219 215 212 212 216 224 234 249 260 269 278 295 312 323 326 323 321 313 301 287 283 284 286 284 282 283
258 247 242 237 232 230 230 231 231 231 230 229 229 227 225 224 223 222 218 216 216 220 224 228 234 245 258 277 297 309 319 318 318 314 310 297 289 286 286 287 284 282 285
254 249 243 240 237 235 231 232 234 234 233 233 230 228 227 227 226 223 220 218 220 222 227 229 234 242 256 277 296 310 317 321 322 321 317 302 286 276 273 271 278 283 288
255 250 245 242 241 239 236 236 234 233 233 235 234 231 230 229 227 226 223 222 223 223 225 227 232 238 247 262 280 299 315 324 328 329 328 319 297 275 270 262 266 268 332
263 256 250 246 244 242 241 240 239 238 236 235 234 234 233 233 230 228 226 224 224 224 225 227 230 235 243 259 281 298 312 322 325 329 330 325 308 273 251 256 253 129 186
268 263 256 251 247 244 242 242 241 240 238 237 236 233 232 232 231 229 228 226 226 225 225 227 228 231 236 247 265 282 296 308 313 318 318 317 317 301 276 252 228 163 227
279 265 260 251 248 247 244 242 240 240 238 238 236 235 233 231 229 228 227 226 226 225 225 225 228 230 233 243 258 271 285 292 296 297 290 279 254 237 225 213 210 220 256
281 277 270 260 252 247 246 244 242 241 239 238 236 233 232 231 229 228 226 224 225 225 225 226 227 228 229 235 244 251 258 262 257 247 229 220 221 217 209 222 228 237 252
292 282 273 267 260 251 245 244 243 241 239 237 237 236 234 230 229 227 225 223 224 223 223 224 224 224 224 226 230 236 239 241 237 233 230 224 217 211 199 196 237 269 287
310 302 291 278 266 254 247 242 240 240 240 237 237 234 234 233 229 227 225 223 222 222 224 223 221 220 219 220 222 221 226 231 235 235 225 212 207 207 211 250 286 294 298
322 322 308 292 276 265 256 250 245 244 241 239 238 235 232 232 231 228 227 225 224 222 220 220 220 219 218 218 219 220 217 230 230 221 221 221 217 213 219 295 308 310 308
334 328 311 298 287 276 264 254 248 243 240 238 236 235 233 230 230 229 228 228 227 225 224 224 222 222 221 220 220 217 198 211 207 221 223 222 229 214 236 286 299 299 297
10 0 336 300 285 280 269 257 252 248 243 243 241 238 234 229 228 228 227 226 227 228 226 225 223 223 222 223 221 223 226 218 190 198 218 229 224 232 233 270 278 280 280
357 350 345 343 312 285 272 264 258 251 249 248 245 242 237 231 228 227 227 225 225 225 227 226 224 221 223 224 225 224 223 225 227 221 217 223 223 232 236 260 264 264 271
347 346 341 337 334 310 291 272 261 257 252 250 248 245 241 235 229 226 226 226 226 225 224 225 225 226 226 226 227 229 232 227 226 222 223 223 223 228 241 246 254 252 269
Wind_Speed_850mb
54 46 41 38 37 36 32 28 27 26 26 25 22 20 19 18 17 15 11 8 7 6 4 5 4 4 5 6 5 5 7 6 6 6 6 8 11 11 11 13 14 16 16
51 46 44 40 38 36 33 31 28 25 24 23 22 20 20 20 17 14 12 12 11 11 9 5 7 8 11 12 10 9 7 5 5 4 4 5 9 6 5 9 10 13 12
44 45 46 42 39 37 33 29 26 24 21 17 21 18 18 24 20 15 15 16 15 15 13 12 12 13 14 14 13 11 10 9 6 4 2 2 4 2 2 3 3 7 9
36 44 45 43 39 36 34 32 27 28 25 24 24 23 18 18 16 16 17 18 17 17 17 16 15 14 14 13 12 10 10 11 11 9 6 5 4 2 1 5 4 4 4
33 41 42 42 41 38 34 34 36 35 33 31 26 24 20 17 17 17 18 18 19 18 17 13 13 12 11 8 8 7 6 6 7 9 10 9 7 3 5 9 11 10 9
33 40 42 42 44 46 45 42 37 35 38 33 32 26 22 20 20 20 22 21 20 16 13 12 9 5 5 4 5 5 6 6 4 4 7 12 13 11 11 10 9 13 12
32 40 44 44 44 43 49 46 39 37 34 32 30 25 25 23 23 22 23 20 18 16 12 10 6 3 2 3 4 5 5 5 4 3 6 11 16 21 22 19 15 16 17
30 36 43 46 46 47 47 41 39 35 32 32 28 27 26 24 22 21 20 19 17 14 10 8 5 3 3 3 3 4 3 4 4 4 4 10 16 20 25 22 21 24 23
33 37 41 46 48 48 50 43 40 37 36 35 32 30 27 25 23 22 19 17 14 12 10 7 5 5 5 5 5 3 3 3 4 4 6 10 14 19 22 22 24 26 25
37 40 42 46 49 48 48 46 43 39 40 36 34 33 30 28 25 24 22 19 16 14 10 8 6 6 6 6 7 7 6 6 6 5 6 10 14 18 20 21 23 24 24
41 44 46 49 52 51 49 47 45 44 43 39 38 35 33 31 29 27 26 24 21 18 15 13 11 10 9 8 7 7 8 9 10 9 8 10 13 16 17 18 21 21 23
45 47 49 52 55 56 54 53 51 50 48 46 43 38 36 35 33 33 31 29 26 23 20 16 13 11 9 8 7 8 9 11 11 11 11 12 13 16 17 17 18 20 21
44 50 52 55 57 60 60 59 57 55 54 51 47 43 41 40 39 36 34 32 30 27 22 18 14 12 9 7 7 8 9 9 11 11 11 11 14 17 16 16 18 20 21
54 51 57 59 61 63 65 65 62 61 59 58 53 49 48 47 44 41 40 38 34 28 24 19 15 12 9 8 8 9 10 11 12 12 11 11 12 14 16 19 19 19 17
66 61 62 63 65 68 69 68 69 68 67 64 59 56 53 52 48 46 45 42 38 33 28 23 19 15 12 10 9 9 9 11 13 15 14 11 10 14 15 16 17 15 3
60 65 66 69 69 70 72 73 72 72 71 70 67 63 59 56 53 52 50 47 43 38 32 28 23 19 15 12 10 10 11 12 14 15 15 14 10 10 15 17 16 6 10
57 56 62 68 74 77 76 76 78 77 76 78 75 71 68 64 62 59 57 53 48 43 38 33 28 23 19 15 12 12 12 12 13 12 11 9 6 6 7 10 11 18 13
55 55 58 65 75 80 83 83 83 84 82 83 83 80 77 74 71 68 65 60 55 50 44 39 34 28 23 18 16 15 14 14 13 11 9 6 5 6 5 7 10 14 14
69 69 67 65 72 79 86 90 91 92 90 91 91 89 86 82 80 77 73 67 63 57 51 46 40 34 28 24 21 18 16 15 13 10 9 7 8 9 9 10 9 9 8
51 57 65 70 71 76 86 93 99 101 102 100 97 95 93 91 89 85 79 75 72 67 62 57 48 43 36 31 25 21 18 17 17 17 16 14 14 12 10 7 6 9 13
44 48 54 62 70 79 87 95 107 110 110 108 107 103 101 99 95 92 87 84 81 76 69 61 56 51 44 37 29 24 21 20 22 22 21 16 12 11 10 7 11 13 16
30 29 34 44 59 71 85 95 107 106 116 115 113 113 107 105 101 98 94 92 87 81 77 72 65 59 50 43 35 27 18 22 27 29 28 24 19 18 12 10 14 16 17
37 33 35 37 45 56 70 86 102 110 112 118 122 121 117 113 108 105 100 95 90 86 82 76 71 63 57 52 46 32 17 18 28 34 34 31 26 26 17 13 16 17 16
55 59 49 43 48 56 65 80 95 109 119 119 115 120 124 120 116 112 106 100 95 91 88 82 73 69 63 60 53 51 45 27 21 18 34 35 35 32 30 19 17 16 14
63 73 75 64 56 56 65 75 85 97 108 118 113 118 122 122 121 117 113 107 104 100 92 86 82 79 73 66 64 55 52 45 40 34 25 31 38 35 32 25 21 17 12
79 74 72 70 58 56 62 66 79 86 98 110 111 110 110 116 123 123 116 113 109 103 99 92 87 81 77 71 67 61 57 52 49 45 42 35 34 32 30 26 22 17 15
Wind_Direction_850mb
186 188 188 185 182 178 177 177 178 182 183 187 194 195 187 184 182 179 176 176 192 214 259 291 324 319 329 328 349 6 19 17 16 37 36 50 59 54 49 50 51 52 44
188 188 192 191 192 190 189 187 186 190 192 194 199 204 198 198 204 208 218 227 236 248 264 288 286 310 316 316 338 341 322 331 356 4 61 70 85 84 82 73 68 56 44
190 192 193 194 192 192 192 196 197 201 198 188 199 203 202 219 224 229 241 249 256 268 282 295 304 311 308 312 312 308 306 300 298 300 313 110 132 81 118 90 62 39 37
187 196 195 195 190 190 191 193 191 193 194 205 208 210 211 236 243 249 254 261 270 279 290 299 304 305 311 311 308 309 302 293 284 275 261 238 205 275 301 262 279 310 347
189 195 198 198 190 186 190 192 190 198 192 199 203 218 237 238 247 252 255 259 265 272 280 289 296 303 304 315 324 330 321 306 290 270 261 256 238 271 316 292 266 264 262
194 195 200 201 197 190 191 193 193 197 204 215 224 231 233 234 237 249 259 259 260 266 277 287 289 302 309 345 356 359 350 353 331 285 260 248 233 190 201 220 248 253 253
203 201 203 204 205 200 203 211 213 218 223 224 230 229 231 236 241 238 239 242 251 255 245 241 243 259 308 348 360 358 358 349 339 312 259 242 241 245 245 249 270 275 260
217 213 210 208 210 209 217 218 220 224 225 228 232 235 240 241 237 233 232 232 230 232 227 228 236 255 282 315 323 323 320 312 322 311 263 248 243 248 262 267 268 275 290
220 218 218 216 215 214 221 223 223 222 224 227 228 233 235 236 235 237 237 234 226 215 215 216 228 274 303 322 324 323 322 303 281 277 273 256 256 258 262 271 269 270 274
226 223 222 221 222 222 222 223 224 225 229 228 226 225 223 226 229 231 229 225 217 212 213 225 240 265 292 310 324 340 346 340 330 310 272 263 259 266 272 272 275 279 280
235 230 226 225 224 226 226 227 227 228 231 229 226 225 223 225 223 223 220 215 213 213 217 228 248 267 284 299 311 320 330 335 332 324 311 289 276 271 274 280 282 283 284
244 240 235 230 227 227 228 228 228 228 229 228 227 227 224 223 221 219 215 212 212 216 224 234 249 260 269 278 295 312 323 326 323 321 313 301 287 283 284 286 284 282 283
258 247 242 237 232 230 230 231 231 231 230 229 229 227 225 224 223 222 218 216 216 220 224 228 234 245 258 277 297 309 319 318 318 314 310 297 289 286 286 287 284 282 285
254 249 243 240 237 235 231 232 234 234 233 233 230 228 227 227 226 223 220 218 220 222 227 229 234 242 256 277 296 310 317 321 322 321 317 302 286 276 273 271 278 283 288
255 250 245 242 241 239 236 236 234 233 233 235 234 231 230 229 227 226 223 222 223 223 225 227 232 238 247 262 280 299 315 324 328 329 328 319 297 275 270 262 266 268 332
263 256 250 246 244 242 241 240 239 238 236 235 234 234 233 233 230 228 226 224 224 224 225 227 230 235 243 259 281 298 312 322 325 329 330 325 308 273 251 256 253 129 186
268 263 256 251 247 244 242 242 241 240 238 237 236 233 232 232 231 229 228 226 226 225 225 227 228 231 236 247 265 282 296 308 313 318 318 317 317 301 276 252 228 163 227
279 265 260 251 248 247 244 242 240 240 238 238 236 235 233 231 229 228 227 226 226 225 225 225 228 230 233 243 258 271 285 292 296 297 290 279 254 237 225 213 210 220 256
281 277 270 260 252 247 246 244 242 241 239 238 236 233 232 231 229 228 226 224 225 225 225 226 227 228 229 235 244 251 258 262 257 247 229 220 221 217 209 222 228 237 252
292 282 273 267 260 251 245 244 243 241 239 237 237 236 234 230 229 227 225 223 224 223 223 224 224 224 224 226 230 236 239 241 237 233 230 224 217 211 199 196 237 269 287
310 302 291 278 266 254 247 242 240 240 240 237 237 234 234 233 229 227 225 223 222 222 224 223 221 220 219 220 222 221 226 231 235 235 225 212 207 207 211 250 286 294 298
322 322 308 292 276 265 256 250 245 244 241 239 238 235 232 232 231 228 227 225 224 222 220 220 220 219 218 218 219 220 217 230 230 221 221 221 217 213 219 295 308 310 308
334 328 311 298 287 276 264 254 248 243 240 238 236 235 233 230 230 229 228 228 227 225 224 224 222 222 221 220 220 217 198 211 207 221 223 222 229 214 236 286 299 299 297
10 0 336 300 285 280 269 257 252 248 243 243 241 238 234 229 228 228 227 226 227 228 226 225 223 223 222 223 221 223 226 218 190 198 218 229 224 232 233 270 278 280 280
357 350 345 343 312 285 272 264 258 251 249 248 245 242 237 231 228 227 227 225 225 225 227 226 224 221 223 224 225 224 223 225 227 221 217 223 223 232 236 260 264 264 271
347 346 341 337 334 310 291 272 261 257 252 250 248 245 241 235 229 226 226 226 226 225 224 225 225 226 226 226 227 229 232 227 226 222 223 223 223 228 241 246 254 252 269